Flight Track Log - Related Links

Times and Time Zones

All times are in EDT time to prevent confusion due to time zone crossing. See the N7192Y flight status page for this flight to view local times or setup timezone preferences in your user account.

Time Position Orientation Groundspeed Altitude Reporting Facility
EDT Latitude Longitude Course Direction KTS km/h meters Rate Location/Type
Sat 10:31:45 40.0697 -79.0692 271° West 134 248 1,341  Level Cleveland Center
Sat 10:32:46 40.0681 -79.1156 267° West 128 237 1,615 230 Climbing Cleveland Center
Sat 10:33:52 40.0689 -79.1642 271° West 127 235 1,829 115 Climbing Cleveland Center
Sat 10:34:53 40.0672 -79.2186 268° West 140 259 1,859 15 Climbing Cleveland Center
Sat 10:35:54 40.0658 -79.2783 268° West 160 296 1,859  Level Cleveland Center
Sat 10:36:54 40.0667 -79.3378 271° West 165 306 1,859  Level Cleveland Center
Sat 10:37:55 40.0631 -79.3978 266° West 167 309 1,859  Level Cleveland Center
Sat 10:38:49 40.0636 -79.4519 271° West 165 306 1,859  Level Cleveland Center
Sat 10:39:50 40.0642 -79.5142 271° West 165 306 1,859  Level Cleveland Center
Sat 10:40:51 40.0606 -79.5739 266° West 166 307 1,859  Level Cleveland Center
Sat 10:42:00 40.0486 -79.6404 257° West  Level FlightAware Approximate
Sat 10:49:00 40.0168 -80.0538 270° West  Level FlightAware Approximate
Sat 10:49:57 40.0558 -80.1167 270° West 163 303 1,859  Level Cleveland Center
Sat 10:50:00 40.0169 -80.1133 270° West  Level FlightAware Approximate
Sat 10:50:57 40.0561 -80.1736 270° West 163 303 1,859  Level Cleveland Center
Sat 10:51:00 40.0169 -80.1727 270° West  Level FlightAware Approximate
Sat 10:51:57 40.0542 -80.2333 268° West 163 303 1,859  Level Cleveland Center
Sat 10:52:00 40.0169 -80.2321 270° West  Level FlightAware Approximate
Sat 10:52:57 40.0522 -80.2875 267° West 163 303 1,859  Level Cleveland Center
Sat 10:53:00 40.0169 -80.2915 270° West  Level FlightAware Approximate
Sat 10:53:57 40.0522 -80.3444 270° West 163 303 1,859  Level Cleveland Center
Sat 10:54:00 40.0168 -80.3509 270° West  Level FlightAware Approximate
Sat 10:54:57 40.0525 -80.4042 270° West 163 303 1,859  Level Cleveland Center
Sat 10:55:00 40.0167 -80.4103 270° West  Level FlightAware Approximate
Sat 10:55:57 40.0506 -80.4636 268° West 152 282 1,859  Level Cleveland Center
Sat 10:56:57 40.0464 -80.5233 265° West 157 291 1,859  Level Cleveland Center
Sat 10:57:57 40.0464 -80.5803 270° West 157 291 1,859  Level Cleveland Center
Sat 10:58:57 40.0464 -80.6400 270° West 157 291 1,859  Level Cleveland Center
Sat 10:59:57 40.0442 -80.6997 267° West 162 299 1,859  Level Cleveland Center
Sat 11:00:57 40.0419 -80.7594 267° West 162 299 1,859  Level Cleveland Center
Sat 11:01:57 40.0397 -80.8189 267° West 162 299 1,859  Level Cleveland Center
Sat 11:02:57 40.0397 -80.8706 270° West 162 299 1,859  Level Cleveland Center
Sat 11:03:57 40.0375 -80.9328 267° West 162 299 1,859  Level Cleveland Center
Sat 11:04:57 40.0353 -80.9925 267° West 162 299 1,859  Level Cleveland Center
Sat 11:05:57 40.0328 -81.0494 267° West 162 299 1,859  Level Cleveland Center
Sat 11:06:57 40.0325 -81.1092 270° West 162 299 1,859  Level Cleveland Center
Sat 11:07:57 40.0303 -81.1661 267° West 162 299 1,859  Level Cleveland Center
Sat 11:09:00 40.0253 -81.2353 265° West 165 306 1,859  Level Indianapolis Center
Sat 11:10:01 40.0239 -81.2953 268° West 164 304 1,859  Level Indianapolis Center
Sat 11:11:03 40.0219 -81.3539 268° West 162 299 1,859  Level Indianapolis Center
Sat 11:12:04 40.0200 -81.4139 268° West 163 303 1,859  Level Indianapolis Center
Sat 11:13:06 40.0183 -81.4753 268° West 167 309 1,859  Level Indianapolis Center
Sat 11:14:07 40.0161 -81.5344 267° West 164 304 1,859  Level Indianapolis Center
Sat 11:15:09 40.0142 -81.5947 268° West 165 306 1,859  Level Indianapolis Center
Sat 11:16:10 40.0131 -81.6547 269° West 165 306 1,859  Level Indianapolis Center
Sat 11:17:12 40.0100 -81.7253 267° West 166 307 1,859  Level Indianapolis Center
Sat 11:18:13 40.0081 -81.7778 267° West 163 303 1,859  Level Indianapolis Center
Sat 11:19:15 40.0058 -81.8381 267° West 166 307 1,859  Level Indianapolis Center
Sat 11:20:16 40.0044 -81.8978 268° West 164 304 1,859  Level Indianapolis Center
Sat 11:21:17 40.0017 -81.9675 267° West 163 303 1,859  Level Indianapolis Center
Sat 11:22:03 39.9989 -82.0122 265° West 165 306 1,859  Level Indianapolis Center
Sat 11:22:19 39.9994 -82.0283 273° West 167 309 1,859  Level Indianapolis Center
Sat 11:23:04 39.9992 -82.0775 270° West 168 311 1,859  Level Indianapolis Center
Sat 11:23:20 39.9964 -82.0886 252° West 166 307 1,859  Level Indianapolis Center
Sat 11:24:05 39.9956 -82.1369 269° West 168 311 1,859  Level Indianapolis Center
Sat 11:24:22 39.9956 -82.1506 270° West 168 311 1,859  Level Indianapolis Center
Sat 11:25:06 39.9942 -82.1964 268° West 167 309 1,859  Level Indianapolis Center
Sat 11:25:23 39.9933 -82.2114 266° West 168 311 1,859  Level Indianapolis Center
Sat 11:26:07 39.9903 -82.2586 265° West 166 307 1,859  Level Indianapolis Center
Sat 11:26:25 39.9911 -82.2725 274° West 167 309 1,859  Level Indianapolis Center
Sat 11:27:08 39.9886 -82.3183 266° West 167 309 1,859  Level Indianapolis Center
Sat 11:27:26 39.9878 -82.3322 266° West 164 304 1,859  Level Indianapolis Center
Sat 11:28:09 39.9867 -82.3806 268° West 169 312 1,859  Level Indianapolis Center
Sat 11:28:27 39.9853 -82.3947 263° West 170 315 1,859  Level Indianapolis Center
Sat 11:29:03 39.9833 -82.4347 266° West 170 315 1,859  Level Indianapolis Center
Sat 11:29:29 39.9828 -82.4561 268° West 170 315 1,859  Level Indianapolis Center
Sat 11:30:04 39.9814 -82.4969 267° West 169 312 1,859  Level Indianapolis Center
Sat 11:30:30 39.9806 -82.5181 267° West 170 315 1,859  Level Indianapolis Center
Sat 11:31:05 39.9794 -82.5622 268° West 170 315 1,859  Level Indianapolis Center
Sat 11:31:32 39.9781 -82.5803 264° West 169 312 1,859  Level Indianapolis Center
Sat 11:32:06 39.9756 -82.6242 266° West 170 315 1,859  Level Indianapolis Center
Sat 11:32:33 39.9753 -82.6417 269° West 169 312 1,859  Level Indianapolis Center
Sat 11:33:07 39.9736 -82.6839 267° West 168 311 1,859  Level Indianapolis Center
Sat 11:33:34 39.9731 -82.7036 268° West 169 312 1,859  Level Indianapolis Center
Sat 11:34:08 39.9717 -82.7461 268° West 167 309 1,859  Level Indianapolis Center
Sat 11:34:36 39.9700 -82.7742 266° West 167 309 1,859  Level Indianapolis Center
Sat 11:35:09 39.9678 -82.8056 265° West 167 309 1,859  Level Indianapolis Center
Sat 11:35:37 39.9678 -82.8344 270° West 166 307 1,859  Level Indianapolis Center
Sat 11:36:10 39.9658 -82.8653 265° West 166 307 1,859  Level Indianapolis Center
Sat 11:36:39 39.9644 -82.8956 267° West 167 309 1,859  Level Indianapolis Center
Sat 11:37:10 39.9636 -82.9275 268° West 167 309 1,859  Level Indianapolis Center
Sat 11:37:40 39.9622 -82.9569 266° West 169 312 1,859  Level Indianapolis Center
Sat 11:38:11 39.9592 -82.9922 264° West 168 311 1,859  Level Indianapolis Center
Sat 11:38:42 39.9592 -83.0175 270° West 167 309 1,859 -30 Level Indianapolis Center
Sat 11:39:12 39.9572 -83.0519 266° West 167 309 1,829  Descending Indianapolis Center
Sat 11:39:43 39.9564 -83.0786 268° West 167 309 1,859  Climbing Indianapolis Center
Sat 11:40:19 39.9550 -83.1169 267° West 169 312 1,829  Descending Indianapolis Center
Sat 11:40:44 39.9533 -83.1392 264° West 167 309 1,859  Climbing Indianapolis Center
Sat 11:41:20 39.9503 -83.1817 265° West 168 311 1,829  Descending Indianapolis Center
Sat 11:41:46 39.9508 -83.2003 272° West 168 311 1,859  Climbing Indianapolis Center
Sat 11:42:21 39.9481 -83.2439 265° West 167 309 1,829  Descending Indianapolis Center
Sat 11:42:47 39.9481 -83.2606 270° West 167 309 1,859  Climbing Indianapolis Center
Sat 11:43:22 39.9461 -83.3036 267° West 165 306 1,829  Descending Indianapolis Center
Sat 11:43:48 39.9456 -83.3200 267° West 165 306 1,859  Climbing Indianapolis Center
Sat 11:44:22 39.9417 -83.3628 263° West 164 304 1,829  Descending Indianapolis Center
Sat 11:44:50 39.9422 -83.3803 272° West 165 306 1,859  Climbing Indianapolis Center
Sat 11:45:23 39.9397 -83.4225 266° West 165 306 1,829  Descending Indianapolis Center
Sat 11:45:51 39.9386 -83.4497 267° West 165 306 1,859  Climbing Indianapolis Center
Sat 11:46:24 39.9372 -83.4847 267° West 164 304 1,829  Descending Indianapolis Center
Sat 11:46:52 39.9358 -83.5083 266° West 164 304 1,859  Climbing Indianapolis Center
Sat 11:47:25 39.9328 -83.5442 264° West 163 303 1,829 -30 Descending Indianapolis Center
Sat 11:47:54 39.9331 -83.5669 271° West 163 303 1,829  Level Indianapolis Center
Sat 11:48:55 39.9314 -83.6269 268° West 164 304 1,829 20 Level Indianapolis Center
Sat 11:49:27 39.9283 -83.6633 264° West 166 307 1,859  Climbing Indianapolis Center
Sat 11:49:57 39.9292 -83.6872 273° West 166 307 1,829  Descending Indianapolis Center
Sat 11:50:28 39.9281 -83.7231 268° West 167 309 1,859  Climbing Indianapolis Center
Sat 11:50:58 39.9292 -83.7472 273° West 165 306 1,829 -120 Descending Indianapolis Center
Sat 11:51:29 39.9297 -83.7858 271° West 159 295 1,737 -180 Descending Indianapolis Center
Sat 11:51:59 39.9292 -83.8044 268° West 161 298 1,646 -213 Descending Indianapolis Center
Sat 11:52:29 39.9278 -83.8400 267° West 154 285 1,524 -206 Descending Indianapolis Center
Sat 11:53:01 39.9292 -83.8606 275° West 157 291 1,433 -206 Descending Indianapolis Center
Sat 11:53:31 39.9297 -83.8972 271° West 152 282 1,311 -210 Descending Indianapolis Center
Sat 11:54:02 39.9292 -83.9153 268° West 154 285 1,219 -61 Descending Indianapolis Center
Sat 11:54:31 39.9300 -83.9464 272° West 133 246 1,250 -60 Climbing Indianapolis Center
Sat 11:55:03 39.9306 -83.9644 272° West 144 267 1,158 -180 Descending Indianapolis Center
Sat 11:55:32 39.9325 -83.9958 275° West 142 262 1,067 -240 Descending Indianapolis Center
Sat 11:56:04 39.9378 -84.0231 284° West 140 259 914 -100 Descending Indianapolis Center
Sat 11:56:27 39.9439 -84.0408 294° West 132 245 975  Climbing Indianapolis Center
Sat 11:57:06 39.9514 -84.0672 290° West 135 249 914 -30 Descending Indianapolis Center
Sat 11:57:28 39.9531 -84.0828 278° West 118 219 945  Climbing Indianapolis Center
Sat 11:58:07 39.9536 -84.1078 272° West 125 232 914  Descending Indianapolis Center
Sat 11:58:29 39.9458 -84.1228 236° Southwest 110 204 945 -150 Climbing Indianapolis Center
Sat 11:59:08 39.9350 -84.1419 234° Southwest 117 217 762 -240 Descending Indianapolis Center
Sat 11:59:30 39.9264 -84.1556 230° Southwest 111 206 701 -177 Descending Indianapolis Center
Sat 12:00:10 39.9197 -84.1675 234° Southwest 113 209 579 -210 Descending Indianapolis Center
Sat 12:00:31 39.9117 -84.1836 237° Southwest 94 174 488 -261 Descending Indianapolis Center
Sat 12:02:00 39.9000 -84.2167 267° West  Level FlightAware Approximate
Sat 12:09:00 39.9022 -84.2194 267° West  Level Estimated

Login

Don't have an account? Register now (free) for customized features, flight alerts, and more!